QPF
0.00 0.00 0.00 0.00 0.00 0.00 0.00 0.00 0.00 0.00 0.01 0.01 0.03 0.03 0.04 0.04 0.03 0.02 0.01 0.01 0.01 0.01 0.01 0.01 0.01 0.01 0.01 0.01 0.02 0.02 0.02 0.02 0.02 0.03 0.02 0.02 0.03 0.03 0.03 0.03 0.06 0.07 0.07 0.08
0.00 0.00 0.00 0.00 0.00 0.00 0.00 0.00 0.00 0.00 0.00 0.01 0.02 0.05 0.04 0.02 0.02 0.02 0.02 0.02 0.01 0.01 0.01 0.01 0.01 0.01 0.02 0.03 0.03 0.04 0.03 0.03 0.03 0.03 0.02 0.02 0.04 0.05 0.04 0.03 0.04 0.04 0.04 0.05
0.00 0.00 0.00 0.00 0.00 0.00 0.00 0.00 0.00 0.00 0.00 0.01 0.01 0.02 0.02 0.02 0.02 0.02 0.02 0.02 0.02 0.01 0.01 0.03 0.03 0.03 0.03 0.04 0.04 0.04 0.05 0.05 0.05 0.05 0.04 0.03 0.04 0.05 0.05 0.05 0.06 0.04 0.04 0.04
0.00 0.00 0.00 0.00 0.00 0.00 0.00 0.00 0.00 0.00 0.01 0.01 0.02 0.02 0.05 0.04 0.02 0.01 0.01 0.01 0.01 0.02 0.03 0.04 0.04 0.05 0.05 0.04 0.05 0.05 0.05 0.05 0.05 0.06 0.06 0.05 0.04 0.05 0.05 0.06 0.07 0.05 0.04 0.04
0.00 0.00 0.00 0.00 0.00 0.00 0.00 0.01 0.01 0.02 0.03 0.02 0.02 0.03 0.03 0.03 0.02 0.01 0.01 0.01 0.02 0.03 0.03 0.04 0.04 0.06 0.08 0.05 0.04 0.04 0.04 0.05 0.06 0.07 0.07 0.06 0.08 0.08 0.05 0.05 0.05 0.05 0.05 0.05
0.00 0.00 0.00 0.00 0.01 0.01 0.00 0.01 0.01 0.03 0.03 0.02 0.02 0.03 0.03 0.03 0.02 0.02 0.01 0.01 0.02 0.02 0.02 0.02 0.03 0.04 0.07 0.07 0.06 0.07 0.07 0.07 0.07 0.06 0.05 0.04 0.04 0.05 0.05 0.06 0.06 0.05 0.04 0.04
0.00 0.00 0.00 0.00 0.01 0.01 0.02 0.03 0.03 0.04 0.03 0.02 0.02 0.03 0.05 0.07 0.07 0.04 0.01 0.01 0.01 0.01 0.02 0.02 0.02 0.03 0.03 0.04 0.05 0.07 0.07 0.07 0.08 0.07 0.05 0.03 0.04 0.05 0.05 0.04 0.04 0.04 0.04 0.05
0.00 0.01 0.01 0.01 0.01 0.01 0.02 0.02 0.03 0.04 0.05 0.04 0.02 0.03 0.04 0.04 0.04 0.02 0.02 0.02 0.02 0.02 0.03 0.03 0.03 0.03 0.04 0.07 0.09 0.09 0.08 0.07 0.06 0.05 0.05 0.06 0.07 0.07 0.06 0.05 0.05 0.04 0.04 0.04
0.02 0.02 0.02 0.01 0.01 0.01 0.02 0.03 0.04 0.07 0.06 0.05 0.04 0.04 0.03 0.03 0.02 0.02 0.03 0.03 0.03 0.03 0.03 0.03 0.04 0.05 0.07 0.10 0.12 0.14 0.12 0.09 0.06 0.04 0.04 0.04 0.06 0.07 0.07 0.04 0.02 0.02 0.02 0.02
0.03 0.03 0.02 0.02 0.02 0.01 0.02 0.03 0.06 0.11 0.10 0.10 0.10 0.10 0.09 0.08 0.06 0.08 0.08 0.06 0.04 0.03 0.02 0.02 0.03 0.05 0.08 0.09 0.10 0.10 0.11 0.09 0.06 0.04 0.04 0.04 0.04 0.04 0.03 0.02 0.02 0.03 0.02 0.02
0.04 0.04 0.04 0.04 0.04 0.04 0.08 0.08 0.07 0.06 0.05 0.07 0.10 0.13 0.14 0.11 0.11 0.13 0.10 0.07 0.04 0.03 0.02 0.03 0.03 0.04 0.05 0.05 0.05 0.05 0.06 0.06 0.05 0.04 0.04 0.03 0.03 0.03 0.03 0.02 0.03 0.03 0.02 0.02
0.05 0.04 0.05 0.05 0.06 0.07 0.11 0.15 0.14 0.09 0.04 0.04 0.05 0.06 0.05 0.05 0.05 0.07 0.06 0.05 0.03 0.02 0.02 0.02 0.02 0.02 0.02 0.03 0.03 0.02 0.02 0.02 0.03 0.04 0.05 0.04 0.05 0.04 0.04 0.03 0.03 0.03 0.04 0.04
0.08 0.07 0.05 0.06 0.06 0.09 0.14 0.11 0.11 0.07 0.05 0.04 0.04 0.03 0.03 0.02 0.02 0.02 0.01 0.01 0.01 0.01 0.01 0.01 0.01 0.01 0.01 0.01 0.02 0.02 0.02 0.02 0.03 0.03 0.03 0.03 0.02 0.02 0.02 0.01 0.01 0.01 0.02 0.02
0.10 0.09 0.08 0.07 0.07 0.08 0.08 0.08 0.07 0.05 0.05 0.04 0.04 0.03 0.03 0.03 0.02 0.02 0.01 0.01 0.01 0.01 0.01 0.01 0.01 0.01 0.01 0.01 0.01 0.01 0.02 0.02 0.02 0.02 0.02 0.02 0.01 0.02 0.02 0.01 0.01 0.01 0.01 0.01
0.16 0.09 0.09 0.08 0.09 0.09 0.09 0.11 0.09 0.07 0.05 0.04 0.04 0.03 0.03 0.03 0.02 0.01 0.01 0.00 0.00 0.01 0.01 0.01 0.01 0.01 0.01 0.01 0.01 0.02 0.03 0.03 0.03 0.02 0.02 0.02 0.02 0.01 0.01 0.01 0.01 0.01 0.01 0.01
0.25 0.18 0.15 0.13 0.10 0.08 0.06 0.06 0.06 0.05 0.06 0.05 0.04 0.03 0.03 0.03 0.02 0.01 0.01 0.01 0.01 0.01 0.01 0.01 0.01 0.01 0.01 0.01 0.02 0.03 0.04 0.05 0.05 0.03 0.02 0.02 0.02 0.02 0.02 0.02 0.02 0.01 0.01 0.01
0.25 0.29 0.26 0.23 0.17 0.11 0.08 0.06 0.04 0.03 0.04 0.04 0.04 0.04 0.03 0.02 0.02 0.01 0.01 0.02 0.02 0.02 0.02 0.02 0.01 0.01 0.02 0.02 0.03 0.03 0.04 0.04 0.04 0.03 0.02 0.03 0.02 0.01 0.01 0.02 0.02 0.01 0.01 0.01
0.18 0.21 0.26 0.27 0.26 0.21 0.15 0.09 0.04 0.03 0.03 0.03 0.03 0.03 0.03 0.03 0.02 0.02 0.01 0.01 0.02 0.02 0.01 0.01 0.01 0.01 0.02 0.02 0.02 0.01 0.02 0.02 0.02 0.02 0.02 0.02 0.01 0.01 0.01 0.01 0.01 0.01 0.01 0.01
0.15 0.15 0.18 0.20 0.21 0.23 0.20 0.15 0.07 0.04 0.03 0.02 0.02 0.03 0.02 0.02 0.01 0.01 0.01 0.01 0.01 0.01 0.01 0.01 0.01 0.01 0.01 0.01 0.01 0.01 0.01 0.01 0.01 0.01 0.01 0.01 0.01 0.01 0.01 0.01 0.01 0.01 0.01 0.01
0.16 0.17 0.18 0.16 0.16 0.16 0.16 0.13 0.09 0.05 0.03 0.02 0.02 0.02 0.02 0.01 0.01 0.00 0.01 0.01 0.01 0.01 0.01 0.01 0.01 0.01 0.02 0.02 0.02 0.01 0.01 0.01 0.02 0.02 0.02 0.02 0.01 0.01 0.01 0.01 0.01 0.01 0.01 0.01
0.15 0.12 0.11 0.10 0.11 0.12 0.14 0.11 0.07 0.06 0.04 0.02 0.01 0.01 0.01 0.01 0.00 0.00 0.01 0.01 0.01 0.01 0.01 0.01 0.01 0.01 0.01 0.02 0.02 0.02 0.03 0.03 0.04 0.04 0.03 0.02 0.02 0.01 0.01 0.01 0.01 0.01 0.01 0.01
0.08 0.08 0.07 0.05 0.05 0.05 0.06 0.07 0.06 0.04 0.03 0.02 0.01 0.01 0.01 0.01 0.00 0.00 0.00 0.01 0.01 0.01 0.01 0.01 0.01 0.00 0.00 0.01 0.01 0.02 0.03 0.03 0.03 0.03 0.03 0.03 0.03 0.03 0.02 0.02 0.02 0.02 0.01 0.01
0.06 0.05 0.04 0.04 0.03 0.02 0.02 0.02 0.03 0.03 0.03 0.02 0.01 0.01 0.01 0.01 0.01 0.01 0.01 0.01 0.01 0.01 0.01 0.00 0.00 0.00 0.00 0.00 0.00 0.01 0.01 0.02 0.03 0.03 0.03 0.03 0.03 0.03 0.02 0.02 0.01 0.01 0.01 0.01
0.07 0.05 0.04 0.03 0.02 0.02 0.02 0.02 0.01 0.02 0.02 0.02 0.02 0.02 0.01 0.01 0.02 0.01 0.01 0.00 0.01 0.01 0.01 0.01 0.01 0.00 0.00 0.00 0.00 0.00 0.00 0.00 0.01 0.01 0.01 0.01 0.01 0.01 0.01 0.01 0.01 0.01 0.01 0.01
0.05 0.05 0.05 0.04 0.03 0.03 0.02 0.02 0.02 0.02 0.02 0.02 0.02 0.02 0.02 0.02 0.02 0.01 0.01 0.00 0.00 0.00 0.00 0.01 0.01 0.01 0.01 0.01 0.00 0.00 0.00 0.00 0.00 0.00 0.00 0.00 0.00 0.00 0.01 0.01 0.01 0.01 0.01 0.01
0.04 0.04 0.03 0.03 0.03 0.03 0.02 0.02 0.02 0.02 0.02 0.02 0.02 0.02 0.02 0.01 0.01 0.01 0.00 0.00 0.00 0.00 0.00 0.01 0.01 0.01 0.01 0.01 0.00 0.00 0.00 0.00 0.00 0.00 0.00 0.01 0.01 0.02 0.02 0.02 0.01 0.01 0.01 0.02
0.04 0.03 0.03 0.03 0.03 0.03 0.03 0.03 0.02 0.03 0.03 0.02 0.02 0.02 0.01 0.01 0.01 0.01 0.00 0.00 0.00 0.00 0.01 0.01 0.01 0.01 0.00 0.00 0.00 0.00 0.00 0.00 0.01 0.00 0.01 0.01 0.01 0.02 0.03 0.02 0.02 0.02 0.02 0.02
MSLP
1013.88 1013.76 1013.68 1013.63 1013.61 1013.60 1013.60 1013.57 1013.51 1013.42 1013.31 1013.22 1013.18 1013.22 1013.36 1013.62 1013.98 1014.41 1014.88 1015.34 1015.75 1016.07 1016.29 1016.42 1016.47 1016.46 1016.41 1016.36 1016.30 1016.22 1016.13 1015.99 1015.80 1015.53 1015.20 1014.81 1014.39 1013.96 1013.57 1013.24 1012.99 1012.82 1012.75 1012.76
1014.30 1014.03 1013.72 1013.37 1013.03 1012.69 1012.39 1012.14 1011.95 1011.84 1011.82 1011.92 1012.13 1012.46 1012.88 1013.38 1013.93 1014.49 1015.01 1015.47 1015.84 1016.12 1016.32 1016.44 1016.52 1016.57 1016.60 1016.63 1016.65 1016.64 1016.57 1016.43 1016.21 1015.89 1015.49 1015.02 1014.53 1014.04 1013.60 1013.22 1012.93 1012.73 1012.63 1012.62
1014.66 1014.25 1013.73 1013.16 1012.56 1011.98 1011.46 1011.06 1010.81 1010.72 1010.81 1011.07 1011.51 1012.07 1012.71 1013.40 1014.07 1014.70 1015.24 1015.67 1015.99 1016.23 1016.39 1016.50 1016.60 1016.70 1016.80 1016.91 1016.99 1017.03 1016.99 1016.85 1016.61 1016.25 1015.80 1015.28 1014.74 1014.20 1013.71 1013.30 1012.97 1012.74 1012.60 1012.54
1014.96 1014.41 1013.74 1013.00 1012.23 1011.50 1010.87 1010.40 1010.14 1010.10 1010.29 1010.71 1011.31 1012.03 1012.82 1013.61 1014.35 1014.99 1015.51 1015.90 1016.17 1016.35 1016.47 1016.58 1016.69 1016.83 1016.99 1017.15 1017.28 1017.35 1017.33 1017.20 1016.94 1016.56 1016.07 1015.53 1014.95 1014.40 1013.89 1013.45 1013.09 1012.82 1012.63 1012.50
1015.14 1014.48 1013.71 1012.87 1012.02 1011.23 1010.57 1010.11 1009.88 1009.91 1010.20 1010.72 1011.43 1012.25 1013.11 1013.94 1014.69 1015.30 1015.78 1016.11 1016.32 1016.46 1016.56 1016.65 1016.78 1016.94 1017.13 1017.33 1017.49 1017.58 1017.57 1017.43 1017.16 1016.77 1016.28 1015.72 1015.15 1014.59 1014.07 1013.62 1013.24 1012.93 1012.68 1012.49
1015.18 1014.43 1013.60 1012.73 1011.87 1011.10 1010.48 1010.07 1009.91 1010.01 1010.38 1010.97 1011.73 1012.58 1013.45 1014.27 1014.99 1015.56 1015.99 1016.27 1016.44 1016.55 1016.63 1016.73 1016.87 1017.04 1017.25 1017.45 1017.62 1017.71 1017.69 1017.55 1017.27 1016.87 1016.39 1015.85 1015.29 1014.74 1014.24 1013.78 1013.38 1013.04 1012.74 1012.48
1015.02 1014.22 1013.37 1012.52 1011.71 1011.01 1010.48 1010.16 1010.09 1010.27 1010.68 1011.30 1012.07 1012.91 1013.75 1014.53 1015.19 1015.72 1016.11 1016.36 1016.51 1016.62 1016.71 1016.82 1016.97 1017.15 1017.35 1017.55 1017.69 1017.76 1017.72 1017.56 1017.27 1016.88 1016.40 1015.88 1015.35 1014.83 1014.34 1013.90 1013.49 1013.12 1012.77 1012.44
1014.66 1013.83 1013.01 1012.22 1011.51 1010.92 1010.51 1010.30 1010.31 1010.55 1011.00 1011.62 1012.36 1013.16 1013.94 1014.66 1015.28 1015.77 1016.14 1016.39 1016.56 1016.69 1016.81 1016.94 1017.10 1017.28 1017.47 1017.63 1017.74 1017.76 1017.68 1017.49 1017.19 1016.79 1016.34 1015.84 1015.34 1014.85 1014.38 1013.94 1013.53 1013.13 1012.75 1012.37
1014.12 1013.31 1012.55 1011.85 1011.27 1010.82 1010.53 1010.43 1010.53 1010.82 1011.28 1011.88 1012.57 1013.30 1014.02 1014.68 1015.26 1015.73 1016.11 1016.39 1016.60 1016.77 1016.94 1017.10 1017.27 1017.45 1017.61 1017.73 1017.78 1017.75 1017.61 1017.38 1017.05 1016.65 1016.20 1015.72 1015.25 1014.78 1014.34 1013.91 1013.50 1013.09 1012.67 1012.26
1013.50 1012.73 1012.06 1011.49 1011.04 1010.74 1010.59 1010.59 1010.76 1011.08 1011.53 1012.08 1012.71 1013.37 1014.03 1014.64 1015.19 1015.66 1016.06 1016.39 1016.66 1016.90 1017.12 1017.32 1017.50 1017.66 1017.78 1017.84 1017.83 1017.73 1017.53 1017.25 1016.89 1016.47 1016.02 1015.56 1015.10 1014.65 1014.22 1013.80 1013.38 1012.96 1012.54 1012.11
1012.88 1012.20 1011.65 1011.22 1010.92 1010.76 1010.73 1010.83 1011.04 1011.37 1011.80 1012.30 1012.86 1013.44 1014.03 1014.60 1015.13 1015.62 1016.05 1016.44 1016.78 1017.08 1017.35 1017.58 1017.77 1017.90 1017.98 1017.98 1017.89 1017.71 1017.45 1017.11 1016.72 1016.28 1015.82 1015.36 1014.91 1014.47 1014.04 1013.62 1013.20 1012.78 1012.34 1011.90
1012.38 1011.82 1011.41 1011.13 1010.99 1010.96 1011.04 1011.20 1011.45 1011.78 1012.17 1012.61 1013.09 1013.60 1014.12 1014.65 1015.16 1015.66 1016.12 1016.56 1016.96 1017.31 1017.61 1017.86 1018.05 1018.15 1018.18 1018.11 1017.96 1017.71 1017.39 1017.00 1016.56 1016.10 1015.63 1015.16 1014.71 1014.27 1013.84 1013.41 1012.98 1012.55 1012.10 1011.66
1012.08 1011.67 1011.41 1011.29 1011.28 1011.37 1011.54 1011.76 1012.02 1012.33 1012.67 1013.04 1013.45 1013.88 1014.34 1014.82 1015.31 1015.80 1016.29 1016.75 1017.19 1017.57 1017.89 1018.14 1018.31 1018.39 1018.36 1018.24 1018.02 1017.72 1017.34 1016.92 1016.45 1015.97 1015.49 1015.01 1014.54 1014.09 1013.65 1013.20 1012.76 1012.30 1011.85 1011.39
1012.02 1011.77 1011.66 1011.68 1011.80 1011.99 1012.22 1012.48 1012.75 1013.02 1013.31 1013.62 1013.95 1014.31 1014.70 1015.13 1015.58 1016.06 1016.54 1017.01 1017.45 1017.83 1018.15 1018.39 1018.53 1018.57 1018.51 1018.34 1018.08 1017.74 1017.33 1016.88 1016.40 1015.91 1015.42 1014.93 1014.45 1013.98 1013.51 1013.05 1012.57 1012.09 1011.61 1011.13
1012.20 1012.10 1012.13 1012.28 1012.49 1012.75 1013.03 1013.31 1013.57 1013.81 1014.05 1014.29 1014.55 1014.85 1015.18 1015.55 1015.96 1016.40 1016.85 1017.30 1017.71 1018.08 1018.37 1018.58 1018.70 1018.70 1018.61 1018.41 1018.14 1017.78 1017.37 1016.92 1016.44 1015.95 1015.46 1014.96 1014.47 1013.98 1013.49 1012.98 1012.48 1011.96 1011.44 1010.92
1012.58 1012.61 1012.75 1012.99 1013.27 1013.58 1013.88 1014.16 1014.40 1014.62 1014.81 1015.00 1015.21 1015.44 1015.71 1016.03 1016.38 1016.77 1017.18 1017.58 1017.95 1018.28 1018.53 1018.71 1018.79 1018.78 1018.67 1018.47 1018.19 1017.85 1017.46 1017.04 1016.58 1016.11 1015.63 1015.14 1014.63 1014.12 1013.60 1013.06 1012.51 1011.95 1011.38 1010.82
1013.11 1013.23 1013.45 1013.73 1014.05 1014.38 1014.68 1014.95 1015.18 1015.36 1015.53 1015.68 1015.84 1016.03 1016.25 1016.51 1016.82 1017.15 1017.49 1017.83 1018.15 1018.42 1018.63 1018.76 1018.82 1018.79 1018.69 1018.51 1018.26 1017.96 1017.62 1017.23 1016.82 1016.39 1015.93 1015.45 1014.94 1014.41 1013.86 1013.29 1012.69 1012.08 1011.47 1010.85
1013.72 1013.89 1014.15 1014.45 1014.77 1015.09 1015.38 1015.63 1015.84 1016.00 1016.15 1016.28 1016.41 1016.57 1016.75 1016.96 1017.21 1017.48 1017.76 1018.03 1018.28 1018.49 1018.65 1018.75 1018.79 1018.77 1018.68 1018.53 1018.34 1018.09 1017.81 1017.50 1017.14 1016.76 1016.33 1015.87 1015.37 1014.84 1014.26 1013.66 1013.02 1012.37 1011.71 1011.05
1014.38 1014.57 1014.82 1015.11 1015.40 1015.69 1015.95 1016.17 1016.36 1016.51 1016.64 1016.76 1016.89 1017.02 1017.17 1017.35 1017.54 1017.75 1017.96 1018.17 1018.35 1018.50 1018.62 1018.69 1018.71 1018.70 1018.64 1018.54 1018.40 1018.23 1018.02 1017.78 1017.50 1017.17 1016.79 1016.36 1015.88 1015.34 1014.76 1014.14 1013.48 1012.80 1012.10 1011.41
1015.05 1015.23 1015.45 1015.70 1015.95 1016.20 1016.42 1016.61 1016.78 1016.92 1017.04 1017.16 1017.27 1017.39 1017.52 1017.66 1017.81 1017.96 1018.11 1018.24 1018.36 1018.45 1018.52 1018.57 1018.59 1018.58 1018.56 1018.51 1018.44 1018.34 1018.21 1018.04 1017.82 1017.55 1017.23 1016.84 1016.38 1015.86 1015.29 1014.66 1014.00 1013.31 1012.60 1011.89
1015.74 1015.89 1016.06 1016.26 1016.45 1016.65 1016.82 1016.98 1017.13 1017.26 1017.38 1017.49 1017.59 1017.70 1017.80 1017.91 1018.01 1018.10 1018.18 1018.25 1018.31 1018.35 1018.38 1018.40 1018.42 1018.42 1018.43 1018.42 1018.40 1018.37 1018.31 1018.21 1018.05 1017.85 1017.57 1017.22 1016.81 1016.32 1015.77 1015.16 1014.52 1013.84 1013.14 1012.45
1016.41 1016.52 1016.65 1016.79 1016.93 1017.07 1017.21 1017.33 1017.45 1017.57 1017.67 1017.77 1017.86 1017.95 1018.03 1018.09 1018.14 1018.18 1018.20 1018.21 1018.21 1018.20 1018.19 1018.19 1018.20 1018.21 1018.23 1018.26 1018.29 1018.30 1018.29 1018.25 1018.15 1017.99 1017.76 1017.46 1017.09 1016.65 1016.14 1015.57 1014.97 1014.33 1013.67 1013.02
1017.05 1017.13 1017.22 1017.31 1017.40 1017.49 1017.58 1017.68 1017.77 1017.86 1017.94 1018.02 1018.09 1018.15 1018.19 1018.21 1018.21 1018.19 1018.15 1018.11 1018.05 1018.00 1017.97 1017.94 1017.93 1017.95 1017.98 1018.03 1018.08 1018.13 1018.15 1018.14 1018.08 1017.96 1017.78 1017.52 1017.20 1016.80 1016.35 1015.85 1015.31 1014.73 1014.14 1013.54
1017.62 1017.67 1017.73 1017.78 1017.83 1017.88 1017.94 1018.00 1018.06 1018.12 1018.18 1018.23 1018.26 1018.28 1018.27 1018.25 1018.20 1018.13 1018.04 1017.95 1017.86 1017.77 1017.71 1017.66 1017.64 1017.65 1017.69 1017.74 1017.80 1017.85 1017.89 1017.89 1017.85 1017.76 1017.61 1017.40 1017.12 1016.79 1016.40 1015.98 1015.51 1015.02 1014.51 1014.00
1018.07 1018.11 1018.13 1018.16 1018.18 1018.20 1018.23 1018.25 1018.29 1018.32 1018.34 1018.35 1018.34 1018.32 1018.27 1018.20 1018.10 1017.99 1017.87 1017.74 1017.62 1017.52 1017.43 1017.38 1017.35 1017.35 1017.37 1017.41 1017.46 1017.51 1017.53 1017.54 1017.50 1017.42 1017.29 1017.12 1016.89 1016.62 1016.31 1015.96 1015.59 1015.19 1014.78 1014.35
1018.35 1018.38 1018.39 1018.39 1018.40 1018.40 1018.40 1018.40 1018.40 1018.40 1018.38 1018.36 1018.31 1018.25 1018.16 1018.05 1017.92 1017.78 1017.64 1017.50 1017.37 1017.25 1017.16 1017.10 1017.06 1017.05 1017.06 1017.08 1017.11 1017.13 1017.14 1017.12 1017.08 1017.00 1016.88 1016.73 1016.55 1016.34 1016.10 1015.84 1015.56 1015.26 1014.95 1014.62
1018.44 1018.45 1018.45 1018.44 1018.43 1018.42 1018.40 1018.38 1018.36 1018.33 1018.28 1018.22 1018.15 1018.05 1017.93 1017.80 1017.65 1017.51 1017.36 1017.21 1017.09 1016.98 1016.89 1016.83 1016.79 1016.77 1016.76 1016.76 1016.76 1016.75 1016.72 1016.68 1016.62 1016.53 1016.42 1016.30 1016.15 1016.00 1015.83 1015.65 1015.46 1015.25 1015.04 1014.81
Thickness
5779 5792 5799 5799 5803 5805 5796 5785 5775 5779 5784 5796 5805 5808 5809 5809 5807 5804 5799 5797 5794 5790 5787 5784 5781 5777 5774 5771 5768 5765 5759 5755 5752 5750 5747 5743 5740 5737 5735 5733 5730 5728 5726 5724
5772 5790 5794 5794 5802 5804 5802 5800 5794 5791 5789 5808 5811 5809 5806 5805 5803 5799 5797 5795 5793 5790 5785 5782 5778 5775 5772 5768 5765 5762 5757 5752 5750 5747 5743 5739 5736 5733 5731 5728 5725 5723 5721 5718
5748 5770 5779 5770 5793 5800 5800 5805 5800 5786 5795 5805 5802 5802 5802 5802 5801 5798 5796 5794 5790 5787 5784 5780 5777 5774 5769 5765 5762 5757 5753 5749 5746 5743 5739 5736 5733 5729 5725 5722 5720 5718 5715 5713
5736 5750 5740 5769 5804 5808 5802 5803 5806 5804 5805 5806 5805 5804 5805 5804 5799 5796 5794 5791 5788 5785 5782 5779 5777 5773 5768 5762 5757 5752 5747 5744 5741 5738 5734 5731 5728 5724 5721 5718 5715 5712 5709 5707
5720 5726 5741 5773 5796 5801 5791 5785 5800 5799 5799 5801 5801 5796 5792 5799 5800 5795 5793 5790 5787 5784 5781 5776 5772 5768 5762 5756 5751 5746 5742 5739 5736 5734 5730 5726 5722 5719 5716 5713 5709 5706 5703 5700
5718 5721 5724 5757 5793 5807 5795 5769 5794 5798 5793 5793 5792 5773 5776 5791 5794 5791 5788 5786 5783 5780 5776 5770 5766 5762 5756 5750 5745 5741 5738 5736 5732 5729 5724 5720 5717 5714 5711 5707 5703 5700 5696 5694
5714 5716 5732 5768 5790 5796 5761 5761 5789 5795 5794 5792 5786 5786 5788 5789 5787 5786 5783 5780 5778 5773 5767 5763 5760 5755 5748 5743 5739 5737 5734 5730 5726 5723 5719 5715 5711 5707 5703 5700 5696 5692 5689 5687
5707 5708 5722 5770 5778 5770 5769 5785 5788 5788 5788 5786 5785 5784 5782 5780 5778 5777 5774 5773 5770 5765 5759 5756 5753 5748 5741 5736 5735 5731 5727 5723 5719 5715 5712 5708 5703 5699 5695 5691 5686 5683 5681 5678
5715 5720 5745 5762 5768 5777 5783 5781 5782 5782 5782 5782 5777 5774 5773 5770 5768 5767 5765 5763 5761 5756 5750 5747 5744 5741 5734 5730 5728 5725 5719 5715 5710 5707 5703 5700 5695 5691 5686 5683 5679 5676 5673 5670
5716 5728 5743 5754 5764 5772 5779 5779 5780 5781 5779 5777 5770 5767 5764 5762 5758 5757 5755 5752 5750 5746 5741 5737 5735 5733 5728 5725 5721 5717 5711 5706 5702 5697 5693 5690 5687 5683 5679 5675 5671 5668 5665 5662
5708 5722 5733 5743 5752 5761 5766 5770 5771 5771 5772 5770 5766 5760 5756 5752 5749 5748 5744 5742 5741 5737 5732 5729 5726 5723 5721 5717 5714 5708 5703 5699 5694 5690 5685 5680 5676 5672 5669 5666 5664 5661 5658 5655
5700 5717 5719 5727 5743 5754 5754 5756 5758 5758 5757 5759 5758 5752 5748 5743 5741 5739 5736 5734 5731 5727 5723 5720 5718 5714 5712 5710 5706 5700 5694 5690 5686 5681 5676 5672 5667 5662 5658 5657 5655 5653 5651 5648
5708 5718 5722 5727 5735 5745 5746 5748 5750 5750 5749 5747 5745 5743 5738 5733 5730 5730 5727 5724 5721 5718 5715 5712 5708 5705 5703 5701 5697 5692 5687 5683 5678 5674 5669 5664 5660 5656 5651 5647 5645 5643 5641 5639
5708 5712 5712 5719 5724 5734 5737 5739 5739 5738 5737 5736 5732 5730 5726 5722 5720 5718 5716 5714 5712 5709 5705 5702 5699 5696 5694 5692 5688 5683 5679 5675 5671 5667 5663 5658 5654 5649 5645 5641 5637 5633 5630 5627
5701 5706 5707 5713 5718 5722 5725 5726 5723 5721 5721 5720 5719 5717 5714 5711 5709 5708 5707 5706 5702 5698 5695 5692 5688 5685 5685 5682 5679 5675 5671 5667 5663 5660 5656 5651 5647 5642 5637 5634 5629 5624 5620 5617
5692 5695 5699 5703 5705 5708 5711 5713 5710 5708 5709 5708 5706 5705 5705 5702 5699 5697 5696 5694 5690 5686 5683 5681 5678 5676 5675 5673 5669 5666 5662 5660 5656 5652 5648 5644 5639 5634 5629 5625 5621 5617 5612 5609
5680 5681 5686 5691 5695 5697 5699 5700 5701 5701 5699 5697 5696 5696 5694 5691 5688 5685 5684 5682 5680 5677 5674 5672 5669 5668 5666 5663 5660 5656 5653 5650 5648 5643 5639 5635 5631 5627 5622 5618 5614 5609 5605 5602
5677 5679 5683 5686 5687 5687 5686 5687 5689 5690 5689 5688 5687 5686 5681 5679 5676 5674 5673 5671 5668 5666 5664 5662 5661 5659 5657 5654 5651 5648 5644 5641 5638 5635 5631 5627 5623 5620 5615 5611 5607 5603 5598 5594
5672 5673 5675 5677 5679 5678 5675 5674 5675 5678 5678 5677 5676 5674 5672 5670 5667 5665 5663 5660 5657 5654 5653 5653 5652 5649 5647 5645 5643 5640 5636 5633 5630 5627 5623 5620 5616 5612 5608 5604 5600 5596 5591 5586
5664 5665 5666 5667 5669 5668 5666 5666 5667 5668 5668 5667 5666 5663 5661 5659 5657 5654 5652 5649 5647 5646 5645 5643 5642 5639 5637 5636 5634 5631 5629 5625 5622 5618 5614 5610 5607 5603 5600 5596 5592 5587 5583 5579
5654 5655 5655 5657 5657 5658 5658 5659 5659 5659 5658 5658 5656 5654 5651 5648 5647 5645 5642 5638 5638 5638 5636 5634 5632 5630 5628 5627 5625 5623 5620 5617 5614 5610 5606 5602 5599 5595 5591 5588 5584 5579 5575 5571
5646 5647 5648 5648 5650 5649 5650 5650 5650 5649 5648 5648 5647 5645 5642 5639 5637 5635 5633 5631 5630 5629 5627 5625 5624 5622 5620 5619 5616 5614 5611 5609 5605 5602 5598 5594 5591 5587 5583 5579 5575 5571 5567 5563
5638 5640 5641 5640 5640 5640 5641 5641 5641 5640 5640 5639 5638 5636 5633 5631 5629 5626 5622 5623 5623 5622 5620 5618 5616 5615 5613 5610 5608 5606 5603 5601 5597 5594 5590 5587 5583 5579 5575 5572 5567 5564 5559 5555
5630 5632 5633 5633 5633 5633 5631 5632 5633 5633 5632 5631 5630 5628 5626 5624 5621 5620 5619 5618 5616 5614 5612 5610 5609 5607 5605 5602 5599 5597 5595 5592 5589 5586 5583 5579 5575 5572 5568 5564 5559 5556 5552 5548
5622 5623 5624 5624 5623 5623 5623 5624 5624 5624 5623 5622 5622 5621 5620 5619 5616 5614 5612 5611 5609 5607 5604 5603 5601 5599 5596 5593 5591 5589 5586 5583 5581 5578 5574 5570 5566 5563 5559 5556 5552 5548 5544 5540
5614 5614 5615 5617 5617 5617 5618 5618 5616 5616 5615 5614 5613 5613 5612 5611 5610 5608 5605 5604 5601 5599 5597 5595 5593 5591 5588 5586 5583 5581 5578 5575 5572 5569 5566 5562 5559 5555 5551 5548 5544 5541 5537 5533
5608 5608 5609 5610 5611 5612 5613 5612 5611 5610 5609 5608 5606 5606 5605 5604 5602 5600 5598 5596 5593 5591 5589 5587 5585 5583 5580 5578 5575 5573 5570 5567 5564 5561 5558 5555 5551 5548 5544 5541 5537 5533 5530 5526